Location: Recife
(8.0585°S, 34.8848°W)
Time: 21:28:46
(UTC-03:00)

Vanguard 1 - Pass Details

Date: 18 April 2026
Orbit: 654 x 3817 km, 34.2° (Epoch: 12 May)

Event Time Altitude Azimuth Distance (km) Brightness Sun altitude
Rises 15:01:52 0° 213° (SSW) 3,901 13.3 31.3°
Reaches altitude 10° 15:04:47 10° 199° (SSW) 3,275 12.8 30.7°
Maximum altitude 15:11:38 25° 145° (SE) 3,042 12.4 29.0°
Drops below altitude 10° 15:22:16 10° 95° (E) 5,260 13.3 26.5°
Sets 15:28:39 0° 84° (E) 6,860 13.8 25.0°
